Location: Pinehill
(32.1047°N, 94.6054°W)
Time: 08:58:25
(UTC+00:00)

X-37B - Pass Details

Date: 08 August 2022
Orbit: 329 x 342 km, 45.0° (Epoch: 29 September)

Event Time Altitude Azimuth Distance (km) Brightness Sun altitude
Exits shadow 09:44:18 10° 343° (NNW) 1,279 3.4 -22.1°
Maximum altitude 09:44:24 10° 345° (NNW) 1,278 3.4 -22.0°
Drops below altitude 10° 09:44:37 10° 349° (NNW) 1,282 3.5 -22.0°
Sets 09:48:26 0° 40° (NE) 2,125 5.7 -21.4°
